time_stamp(utc),avg(mph),gust(mph),direction(deg),12m_air_temp(f),sonic_u(cm/s),sonic_v(cm/s),sonic_w(cm/s),pressure,2m_air_temp(f),pyranometer(W/m^2)
"2021-09-26 00:02:18+00",4.3,4.3,,68.5,-59,-166,-3,1012.84,66.1,0
"2021-09-26 00:07:18+00",4.4,5.4,,68.6,-93,-175,-2,1012.88,66.2,0
"2021-09-26 00:12:18+00",4.7,4.7,,68.6,-95,-182,-3,1012.81,66.3,0
"2021-09-26 00:17:18+00",5.2,5.2,,68.6,-97,-202,-2,1012.87,66.3,0
"2021-09-26 00:22:18+00",5.0,6.0,,68.4,-142,-159,0,1012.82,66.3,0
"2021-09-26 00:27:18+00",5.1,6.1,,68.4,-147,-178,3,1012.83,66.1,0
"2021-09-26 00:32:18+00",6.6,6.6,,68.5,-194,-194,1,1012.91,66,0
"2021-09-26 00:37:18+00",6.2,6.2,,68.5,-199,-175,2,1012.82,65.9,0
"2021-09-26 00:42:18+00",6.3,7.3,,68.5,-207,-178,1,1012.81,65.7,0
"2021-09-26 00:47:18+00",6.3,7.3,,68.4,-197,-186,4,1012.66,65.5,0
"2021-09-26 00:52:18+00",5.2,6.2,,68.1,-155,-160,2,1012.65,65.3,0
"2021-09-26 00:57:18+00",7.9,8.9,,68.5,-274,-215,7,1012.63,65.1,0
"2021-09-26 01:02:18+00",6.7,7.7,,68.6,-282,-153,9,1012.7,65,0
"2021-09-26 01:07:18+00",8.1,8.1,,68.6,-312,-130,12,1012.72,65,0
"2021-09-26 01:12:18+00",7.2,7.2,,68.4,-305,-65,7,1012.76,65.2,0
"2021-09-26 01:17:18+00",8.0,8.0,,68.2,-339,-66,9,1012.65,65.6,0
"2021-09-26 01:22:18+00",7.9,8.9,,68.3,-340,-66,13,1012.59,66.1,0
"2021-09-26 01:27:18+00",8.1,8.1,,68.3,-349,-61,6,1012.67,66.4,0
"2021-09-26 01:32:18+00",8.1,9.1,,68.3,-350,-61,7,1012.53,66.5,0
"2021-09-26 01:37:18+00",8.7,9.7,,68.2,-381,-50,10,1012.53,66.6,0
"2021-09-26 01:42:18+00",8.7,9.7,,68.2,-375,-87,5,1012.44,66.7,0
"2021-09-26 01:47:18+00",7.9,8.9,,68.1,-327,-90,9,1012.54,66.6,0
"2021-09-26 01:52:18+00",8.0,9.0,,68.1,-337,-80,4,1012.56,66.5,0
"2021-09-26 01:57:18+00",7.3,8.3,,68.1,-312,-58,4,1012.52,66.5,0
"2021-09-26 02:02:18+00",8.2,9.2,,68.1,-353,-66,9,1012.61,66.5,0
"2021-09-26 02:07:18+00",8.5,9.5,,68,-365,-64,12,1012.59,66.4,0
"2021-09-26 02:12:18+00",8.6,9.6,,67.9,-363,-74,11,1012.63,66.4,0
"2021-09-26 02:17:18+00",7.6,8.6,,67.8,-313,-89,4,1012.51,66.4,0
"2021-09-26 02:22:18+00",6.5,7.5,,67.7,-258,-78,2,1012.53,66.2,0
"2021-09-26 02:27:18+00",5.6,6.6,,67.5,-220,-89,2,1012.49,66.1,0
"2021-09-26 02:32:18+00",6.9,7.9,,67.5,-283,-135,13,1012.43,65.9,0
"2021-09-26 02:37:18+00",6.7,7.7,,67.4,-275,-139,7,1012.36,65.7,0
"2021-09-26 02:42:18+00",8.4,9.4,,67.6,-335,-154,10,1012.37,65.6,0
"2021-09-26 02:47:18+00",7.6,8.6,,67.5,-303,-143,13,1012.32,65.6,0
"2021-09-26 02:52:18+00",9.2,10.2,,67.5,-378,-167,5,1012.25,65.6,0
"2021-09-26 02:57:18+00",9.9,10.9,,67.3,-401,-143,10,1012.43,65.7,0
"2021-09-26 03:02:18+00",9.8,10.8,,67.1,-400,-128,17,1012.42,65.8,0
"2021-09-26 03:07:18+00",9.9,11.9,,67.1,-394,-164,21,1012.44,65.8,0
"2021-09-26 03:12:18+00",9.6,11.6,,67,-396,-116,13,1012.31,65.9,0
"2021-09-26 03:17:18+00",9.2,11.2,,66.8,-372,-114,18,1012.31,65.9,0
"2021-09-26 03:22:18+00",8.3,9.3,,66.5,-351,-78,11,1012.26,65.8,0
"2021-09-26 03:27:18+00",8.2,9.2,,66.4,-355,-45,10,1012.24,65.7,0
"2021-09-26 03:32:18+00",8.9,9.9,,66.4,-391,-13,11,1012.28,65.6,0
"2021-09-26 03:37:18+00",10.1,11.1,,66.4,-449,5,17,1012.21,65.6,0
"2021-09-26 03:42:18+00",10.0,11.0,,66.1,-448,4,21,1012.29,65.6,0
"2021-09-26 03:47:18+00",11.1,12.1,,66.4,-498,72,16,1012.26,65.7,0
"2021-09-26 03:52:18+00",12.3,13.3,,66.4,-554,91,29,1012.29,65.8,0
"2021-09-26 03:57:18+00",10.9,12.9,,66.2,-488,112,38,1012.33,65.9,0
"2021-09-26 04:02:18+00",12.6,13.6,,66,-566,140,42,1012.31,65.8,0
"2021-09-26 04:07:18+00",12.2,14.2,,66,-545,124,42,1012.32,65.8,0
"2021-09-26 04:12:18+00",11.8,13.8,,66.2,-506,143,41,1012.33,65.8,0
"2021-09-26 04:17:18+00",12.2,15.2,,66.2,-530,144,38,1012.38,65.7,0
"2021-09-26 04:22:18+00",10.4,12.4,,66.1,-444,99,26,1012.32,65.7,0
"2021-09-26 04:27:18+00",11.9,12.9,,66,-528,117,29,1012.2,65.7,0
"2021-09-26 04:32:18+00",12.5,15.5,,66,-559,106,28,1012.24,65.7,0
"2021-09-26 04:37:18+00",10.9,12.9,,65.9,-481,67,28,1012.22,65.7,0
"2021-09-26 04:42:18+00",12.4,14.4,,65.8,-548,119,28,1012.23,65.6,0
"2021-09-26 04:47:18+00",10.6,12.6,,65.6,-455,119,33,1012.2,65.7,0
"2021-09-26 04:52:18+00",12.6,13.6,,65.6,-553,137,10,1012.12,65.3,0
"2021-09-26 04:57:18+00",11.6,12.6,,65.5,-515,130,34,1012.16,65.3,0
"2021-09-26 05:02:18+00",11.6,12.6,,65.4,-501,159,26,1012.17,65.1,0
"2021-09-26 05:07:18+00",13.5,15.5,,65.3,-598,154,28,1012.26,65,0
"2021-09-26 05:12:18+00",12.7,13.7,,65.2,-536,213,18,1012.19,64.8,0
"2021-09-26 05:17:18+00",11.3,12.3,,65.1,-469,185,24,1012.15,64.6,0
"2021-09-26 05:22:18+00",10.7,12.7,,65.1,-451,151,29,1012.09,64.5,0
"2021-09-26 05:27:18+00",10.5,13.5,,65,-443,165,39,1011.95,64.4,0
"2021-09-26 05:32:18+00",13.6,16.6,,64.9,-592,174,27,1011.94,64.3,0
"2021-09-26 05:37:18+00",13.7,16.7,,64.6,-594,187,24,1011.92,64.3,0
"2021-09-26 05:42:18+00",11.9,13.9,,64.5,-525,138,33,1011.9,64.2,0
"2021-09-26 05:47:18+00",13.6,15.6,,64.5,-595,147,16,1011.91,64.2,0
"2021-09-26 05:52:18+00",12.3,14.3,,64.5,-536,136,24,1011.98,64.3,0
"2021-09-26 05:57:18+00",15.1,18.1,,64.5,-666,162,23,1011.97,64.2,0
"2021-09-26 06:02:18+00",12.4,15.4,,64.4,-546,142,57,1011.98,64.2,0
"2021-09-26 06:07:18+00",13.0,15.0,,64.4,-578,164,26,1011.93,64.2,0
"2021-09-26 06:12:18+00",12.5,14.5,,64,-527,175,31,1011.92,63.9,0
"2021-09-26 06:17:18+00",12.4,14.4,,63.9,-534,141,34,1011.92,63.8,0
"2021-09-26 06:22:18+00",11.8,14.8,,63.8,-510,96,36,1011.8,63.6,0
"2021-09-26 06:27:18+00",12.1,16.1,,64.1,-534,100,46,1011.68,63.7,0
"2021-09-26 06:32:18+00",11.9,14.9,,64.3,-515,82,33,1011.67,63.8,0
"2021-09-26 06:37:18+00",10.8,12.8,,64.1,-495,53,18,1011.66,63.9,0
"2021-09-26 06:42:18+00",10.7,12.7,,64,-470,44,23,1011.6,63.8,0
"2021-09-26 06:47:18+00",10.7,11.7,,63.8,-473,92,28,1011.5,63.7,0
"2021-09-26 06:52:18+00",12.4,14.4,,63.6,-544,13,25,1011.45,63.6,0
"2021-09-26 06:57:18+00",12.3,15.3,,63.7,-549,70,44,1011.5,63.5,0
"2021-09-26 07:02:18+00",10.5,12.5,,63.3,-463,29,14,1011.3,63.4,0
"2021-09-26 07:07:18+00",12.4,15.4,,63.4,-551,116,19,1011.22,63.3,0
"2021-09-26 07:12:18+00",12.7,14.7,,63.6,-545,116,20,1011.17,63.3,0
"2021-09-26 07:17:18+00",11.4,13.4,,63.6,-515,63,30,1011.13,63.3,0
"2021-09-26 07:22:18+00",9.7,11.7,,63.4,-435,43,21,1011.15,63.4,0
"2021-09-26 07:27:18+00",10.6,11.6,,63.4,-484,46,24,1011.17,63.3,0
"2021-09-26 07:32:18+00",11.4,13.4,,63.6,-507,54,30,1011.18,63.3,0
"2021-09-26 07:37:18+00",12.9,14.9,,63.4,-574,45,38,1011.21,63.3,0
"2021-09-26 07:42:18+00",12.8,15.8,,63.2,-566,61,22,1011.17,63.2,0
"2021-09-26 07:47:18+00",14.3,17.3,,63,-653,79,32,1011.16,63.1,0
"2021-09-26 07:52:18+00",14.1,16.1,,63.2,-624,128,31,1011.11,63,0
"2021-09-26 07:57:18+00",16.7,19.7,,63.3,-723,209,40,1011.11,62.9,0
"2021-09-26 08:02:18+00",17.0,20.0,,63.4,-723,226,31,1011.18,62.9,0
"2021-09-26 08:07:18+00",15.0,17.0,,63.2,-675,196,27,1011.14,62.8,0
"2021-09-26 08:12:18+00",17.1,18.1,,63.3,-716,291,28,1011.14,62.8,0
"2021-09-26 08:17:18+00",17.0,19.0,,63.4,-733,226,41,1011.09,62.8,0
"2021-09-26 08:22:18+00",15.6,18.6,,63.4,-665,292,42,1011.07,62.8,0
"2021-09-26 08:27:18+00",17.6,19.6,,63.2,-742,307,39,1011.19,62.7,0
"2021-09-26 08:32:18+00",20.8,23.8,,63.1,-908,270,29,1011.15,62.7,0
"2021-09-26 08:37:18+00",16.7,18.7,,62.7,-723,250,40,1011.24,62.5,0
"2021-09-26 08:42:18+00",16.1,19.1,,62.7,-689,287,35,1011.24,62.3,0
"2021-09-26 08:47:18+00",16.6,19.6,,62.7,-696,301,2,1011.26,62.3,0
"2021-09-26 08:52:18+00",21.5,23.5,,62.6,-890,408,26,1011.37,62.2,0
"2021-09-26 08:57:18+00",18.5,20.5,,62.2,-778,336,37,1011.39,62,0
"2021-09-26 09:02:18+00",18.6,22.6,,62.2,-754,414,50,1011.27,61.9,0
"2021-09-26 09:07:18+00",17.4,21.4,,61.9,-709,343,72,1011.35,61.7,0
"2021-09-26 09:12:18+00",18.7,21.7,,61.3,-755,394,45,1011.41,61.3,0
"2021-09-26 09:17:18+00",19.9,22.9,,60.8,-747,483,31,1011.41,60.9,0
"2021-09-26 09:22:18+00",17.6,20.6,,60.8,-672,421,51,1011.36,60.7,0
"2021-09-26 09:27:18+00",17.3,21.3,,60.7,-669,432,36,1011.43,60.5,0
"2021-09-26 09:32:18+00",18.3,20.3,,60.5,-681,449,49,1011.59,60.3,0
"2021-09-26 09:37:18+00",17.7,19.7,,60.5,-685,452,30,1011.69,60.2,0
"2021-09-26 09:42:18+00",19.4,21.4,,60.5,-761,459,29,1011.7,60.1,0
"2021-09-26 09:47:18+00",16.9,19.9,,60.6,-657,427,27,1011.86,60.2,0
"2021-09-26 09:52:18+00",15.7,17.7,,60.6,-620,318,39,1011.93,60.2,0
"2021-09-26 09:57:18+00",14.3,18.3,,60.5,-545,320,62,1011.96,60.2,0
"2021-09-26 10:02:18+00",17.3,20.3,,60.4,-681,420,24,1012.04,60,0
"2021-09-26 10:07:18+00",16.4,19.4,,60.3,-655,381,47,1012.06,60.1,0
"2021-09-26 10:12:18+00",16.3,20.3,,60.2,-613,401,56,1012.1,59.9,0
"2021-09-26 10:17:18+00",19.0,21.0,,60.1,-747,431,40,1012.22,59.8,0
"2021-09-26 10:22:18+00",22.1,24.1,,60,-838,543,33,1012.1,59.7,0
"2021-09-26 10:27:18+00",18.7,21.7,,59.9,-714,435,37,1012.1,59.7,0
"2021-09-26 10:32:18+00",19.1,21.1,,59.9,-756,434,41,1012.18,59.6,0
"2021-09-26 10:37:18+00",15.9,18.9,,60,-613,350,43,1012.19,59.6,0
"2021-09-26 10:42:18+00",16.2,19.2,,60,-631,390,61,1012.23,59.6,0
"2021-09-26 10:47:18+00",16.8,21.8,,60.1,-644,396,72,1012.33,59.7,0
"2021-09-26 10:52:18+00",19.4,21.4,,60,-776,436,29,1012.47,59.7,0
"2021-09-26 10:57:18+00",18.0,20.0,,60,-703,439,32,1012.54,59.6,0
"2021-09-26 11:02:18+00",16.5,18.5,,60.2,-608,401,45,1012.59,59.8,0
"2021-09-26 11:07:18+00",16.7,17.7,,60.3,-638,407,52,1012.52,59.8,0
"2021-09-26 11:12:18+00",15.8,19.8,,60.1,-578,410,52,1012.54,59.8,0
"2021-09-26 11:17:18+00",17.7,19.7,,60.1,-672,440,38,1012.7,59.7,0
"2021-09-26 11:22:18+00",16.8,19.8,,60.2,-653,403,27,1012.75,59.9,0
"2021-09-26 11:27:18+00",15.0,18.0,,60.4,-569,345,62,1012.74,60.1,0
"2021-09-26 11:32:18+00",16.8,18.8,,60.3,-639,412,44,1012.78,60.1,0
"2021-09-26 11:37:18+00",16.8,19.8,,60.4,-638,433,42,1012.89,60.4,0
"2021-09-26 11:42:18+00",17.3,20.3,,60.4,-701,401,33,1012.88,60.6,0
"2021-09-26 11:47:18+00",16.6,18.6,,60.6,-636,400,27,1012.9,60.9,0
"2021-09-26 11:52:18+00",16.5,20.5,,60.8,-665,380,35,1012.95,61.2,0
"2021-09-26 11:57:18+00",17.0,19.0,,60.8,-687,368,48,1013.04,61.4,0
"2021-09-26 12:02:18+00",16.9,20.9,,60.8,-631,405,42,1013.11,61.5,0
"2021-09-26 12:07:18+00",18.0,21.0,,60.6,-692,376,31,1013.21,61.5,0
"2021-09-26 12:12:18+00",17.8,19.8,,60.5,-690,430,45,1013.24,61.6,0
"2021-09-26 12:17:18+00",19.7,21.7,,60.5,-775,451,34,1013.3,61.7,0
"2021-09-26 12:22:18+00",18.1,21.1,,60.9,-757,349,44,1013.32,61.9,0
"2021-09-26 12:27:18+00",17.8,19.8,,61,-774,327,37,1013.38,62.1,0
"2021-09-26 12:32:18+00",18.4,20.4,,61.2,-743,358,27,1013.37,62.4,0
"2021-09-26 12:37:18+00",17.7,21.7,,61.3,-729,367,7,1013.35,62.5,0
"2021-09-26 12:42:18+00",17.7,20.7,,61.4,-653,428,43,1013.34,62.5,0
"2021-09-26 12:47:18+00",18.4,20.4,,61.6,-703,430,42,1013.39,62.8,0
"2021-09-26 12:52:18+00",17.7,19.7,,61.9,-677,432,29,1013.45,63.1,0
"2021-09-26 12:57:18+00",17.9,19.9,,61.9,-678,445,37,1013.36,63.1,0
"2021-09-26 13:02:18+00",16.8,18.8,,62.1,-612,420,52,1013.47,63.3,0
"2021-09-26 13:07:18+00",17.7,20.7,,62.6,-697,433,40,1013.66,63.7,0
"2021-09-26 13:12:18+00",19.7,22.7,,62.4,-782,474,48,1013.6,63.9,0
"2021-09-26 13:17:18+00",18.9,20.9,,62.6,-676,524,45,1013.65,64,0
"2021-09-26 13:22:18+00",18.0,20.0,,62.9,-618,522,47,1013.65,64.2,0
"2021-09-26 13:27:18+00",17.6,21.6,,62.9,-551,548,27,1013.74,64.2,0
"2021-09-26 13:32:18+00",18.9,21.9,,63,-602,604,55,1013.76,64.4,0
"2021-09-26 13:37:18+00",19.7,22.7,,63,-635,638,38,1013.78,64.4,0
"2021-09-26 13:42:18+00",18.6,21.6,,63.3,-596,605,38,1013.74,64.6,0
"2021-09-26 13:47:18+00",17.6,21.6,,63.5,-625,521,44,1013.81,64.9,0
"2021-09-26 13:52:18+00",18.1,20.1,,63.6,-641,508,51,1013.82,65,0
"2021-09-26 13:57:18+00",17.6,21.6,,63.6,-548,599,60,1013.91,65,0
"2021-09-26 14:02:18+00",19.4,23.4,,63.7,-690,551,57,1013.9,65.3,0
"2021-09-26 14:07:18+00",18.2,22.2,,63.7,-633,498,47,1013.89,65.2,0
"2021-09-26 14:12:18+00",15.7,17.7,,63.9,-589,387,68,1013.93,65.5,0
"2021-09-26 14:17:18+00",19.4,23.4,,64.3,-704,531,38,1013.91,65.8,0
"2021-09-26 14:22:18+00",15.8,17.8,,64.2,-590,398,65,1013.86,65.8,0
"2021-09-26 14:27:18+00",17.5,18.5,,64.4,-647,450,38,1013.89,66.2,0
"2021-09-26 14:32:18+00",15.0,17.0,,64.4,-458,482,21,1013.87,66.1,0
"2021-09-26 14:37:18+00",18.7,20.7,,64.4,-721,455,33,1013.98,66.4,0
"2021-09-26 14:42:18+00",14.9,18.9,,65,-552,391,60,1013.86,66.6,0
"2021-09-26 14:47:18+00",14.3,16.3,,65.1,-490,410,38,1013.97,66.9,0
"2021-09-26 14:52:18+00",15.0,20.0,,65.2,-523,421,57,1013.9,67.1,0
"2021-09-26 14:57:18+00",14.3,16.3,,65.5,-444,452,23,1013.93,67.2,0
"2021-09-26 15:02:18+00",17.5,19.5,,65.8,-405,660,38,1013.86,67.4,0
"2021-09-26 15:07:18+00",13.9,16.9,,66.1,-468,407,39,1013.78,67.7,0
"2021-09-26 15:12:18+00",14.1,17.1,,66.2,-532,345,57,1013.81,67.9,0
"2021-09-26 15:17:18+00",14.0,16.0,,66.6,-479,416,54,1013.82,68.3,0
"2021-09-26 15:22:18+00",14.0,17.0,,66.7,-421,494,14,1013.81,68.5,0
"2021-09-26 15:27:18+00",16.1,19.1,,66.6,-648,381,44,1013.82,68.5,0
"2021-09-26 15:32:18+00",17.6,21.6,,66.8,-685,406,40,1013.82,68.7,0
"2021-09-26 15:37:18+00",13.5,17.5,,67,-448,422,101,1013.85,69,0
"2021-09-26 15:42:18+00",18.6,23.6,,67.3,-735,433,52,1013.89,69.1,0
"2021-09-26 15:47:18+00",20.2,23.2,,67.3,-487,770,26,1013.81,68.9,0
"2021-09-26 15:52:18+00",21.9,31.9,,67,-691,635,35,1013.83,68.9,0
"2021-09-26 15:57:18+00",17.3,20.3,,67.6,-616,495,37,1013.98,69.4,0
"2021-09-26 16:02:18+00",17.2,19.2,,67.1,-572,499,44,1013.84,69.1,0
"2021-09-26 16:07:18+00",20.0,24.0,,67.5,-761,497,44,1013.8,69.3,0
"2021-09-26 16:12:18+00",19.3,23.3,,67.3,-687,558,65,1013.85,69.1,0
"2021-09-26 16:17:18+00",18.5,22.5,,67.5,-698,487,47,1013.81,69.2,0
"2021-09-26 16:22:18+00",19.6,22.6,,67.6,-808,401,33,1013.73,69.5,0
"2021-09-26 16:27:18+00",16.4,18.4,,67.9,-671,332,56,1013.65,69.8,0
"2021-09-26 16:32:18+00",15.7,16.7,,67.8,-626,376,46,1013.61,70,0
"2021-09-26 16:37:18+00",19.2,22.2,,68.4,-641,617,79,1013.59,70.1,0
"2021-09-26 16:42:18+00",11.5,13.5,,68.2,-378,358,82,1013.65,69.8,0
"2021-09-26 16:47:18+00",16.4,19.4,,68.4,-624,379,60,1013.5,70.2,0
"2021-09-26 16:52:18+00",14.8,16.8,,68.3,-594,347,34,1013.32,70.5,0
"2021-09-26 16:57:18+00",19.1,22.1,,68.5,-677,549,59,1013.18,70.5,0
"2021-09-26 17:02:18+00",15.6,18.6,,68.3,-606,401,28,1013.21,70.4,0
"2021-09-26 17:07:18+00",18.5,22.5,,68.4,-747,334,24,1013.16,70.6,0
"2021-09-26 17:12:18+00",13.5,16.5,,68.7,-408,419,45,1013.11,70.6,0
"2021-09-26 17:17:18+00",16.4,21.4,,68.7,-546,524,44,1013.03,70.6,0
"2021-09-26 17:22:18+00",18.3,21.3,,68.9,-714,415,40,1013.03,70.8,0
"2021-09-26 17:27:18+00",16.5,18.5,,69.1,-625,418,26,1012.96,71,0
"2021-09-26 17:32:18+00",16.9,18.9,,69.2,-736,271,45,1012.96,71.3,0
"2021-09-26 17:37:18+00",14.0,18.0,,69.2,-590,288,38,1012.98,71.6,0
"2021-09-26 17:42:18+00",16.1,19.1,,69,-635,382,22,1012.9,71.4,0
"2021-09-26 17:47:18+00",21.2,26.2,,69.4,-832,442,21,1012.82,71.5,0
"2021-09-26 17:52:18+00",15.0,18.0,,70,-656,273,82,1012.83,71.9,0
"2021-09-26 17:57:18+00",15.7,17.7,,69.3,-671,238,43,1012.83,71.9,0
"2021-09-26 18:02:18+00",18.8,21.8,,69.9,-782,338,63,1012.75,72.1,0
"2021-09-26 18:07:18+00",21.2,24.2,,69.5,-938,221,52,1012.73,72.1,0
"2021-09-26 18:12:18+00",20.5,25.5,,69.8,-918,187,95,1012.77,71.9,0
"2021-09-26 18:17:18+00",18.5,21.5,,69.7,-795,311,61,1012.73,71.8,0
"2021-09-26 18:22:18+00",23.6,26.6,,69.8,-1018,319,66,1012.64,72,0
"2021-09-26 18:27:18+00",20.4,22.4,,69.7,-917,219,53,1012.7,71.9,0
"2021-09-26 18:32:18+00",21.2,23.2,,70,-891,350,31,1012.66,72,0
"2021-09-26 18:37:18+00",19.6,23.6,,69.9,-836,296,54,1012.66,72.2,0
"2021-09-26 18:42:18+00",16.6,18.6,,69.7,-725,234,55,1012.64,72.1,0
"2021-09-26 18:47:18+00",23.6,26.6,,69.8,-970,484,34,1012.65,72.1,0
"2021-09-26 18:52:18+00",17.9,19.9,,69.9,-662,463,41,1012.66,71.8,0
"2021-09-26 18:57:18+00",19.6,21.6,,70,-876,252,57,1012.64,72.1,0
"2021-09-26 19:02:18+00",19.6,22.6,,69.9,-851,193,52,1012.68,72.1,0
"2021-09-26 19:07:18+00",18.3,20.3,,69.9,-821,230,44,1012.62,72.2,0
"2021-09-26 19:12:18+00",21.5,24.5,,69.9,-882,389,45,1012.53,72.2,0
"2021-09-26 19:17:18+00",18.1,24.1,,70.3,-709,444,64,1012.54,72.3,0
"2021-09-26 19:22:18+00",15.1,18.1,,70.4,-690,147,53,1012.47,72.3,0
"2021-09-26 19:27:18+00",22.9,26.9,,70.3,-974,403,44,1012.37,72.4,0
"2021-09-26 19:32:18+00",17.9,22.9,,70.5,-736,349,61,1012.36,72.4,0
"2021-09-26 19:37:18+00",22.9,26.9,,70.3,-1034,195,72,1012.18,72.4,0
"2021-09-26 19:42:18+00",22.1,26.1,,70.5,-929,351,60,1012.27,72.5,0
"2021-09-26 19:47:18+00",20.0,22.0,,70.3,-864,315,29,1012.43,72.5,0
"2021-09-26 19:52:18+00",18.0,21.0,,70.6,-799,205,67,1012.31,72.7,0
"2021-09-26 19:57:18+00",19.4,23.4,,70.7,-765,443,46,1012.38,72.5,0
"2021-09-26 20:02:18+00",18.8,22.8,,70.8,-811,261,54,1012.37,72.7,0
"2021-09-26 20:07:18+00",22.4,25.4,,70.9,-944,380,37,1012.31,72.7,0
"2021-09-26 20:12:18+00",17.3,23.3,,71,-717,333,52,1012.4,72.7,0
"2021-09-26 20:17:18+00",18.0,21.0,,71,-757,309,66,1012.43,72.8,0
"2021-09-26 20:22:18+00",19.8,21.8,,70.8,-871,285,36,1012.45,72.8,0
"2021-09-26 20:27:18+00",18.8,23.8,,70.7,-802,246,84,1012.45,72.7,0
"2021-09-26 20:32:18+00",17.0,20.0,,70.8,-715,296,33,1012.48,72.7,0
"2021-09-26 20:37:18+00",18.8,21.8,,71,-786,330,34,1012.5,72.8,0
"2021-09-26 20:42:18+00",22.3,25.3,,71.1,-984,271,51,1012.54,72.9,0
"2021-09-26 20:47:18+00",19.4,24.4,,71.1,-779,366,41,1012.63,72.8,0
"2021-09-26 20:52:18+00",20.4,22.4,,71.1,-818,438,36,1012.66,72.4,0
"2021-09-26 20:57:18+00",19.5,22.5,,71.3,-775,403,24,1012.63,72.5,0
"2021-09-26 21:02:18+00",21.0,24.0,,71.3,-829,494,38,1012.71,72.6,0
"2021-09-26 21:07:18+00",16.3,20.3,,71.3,-644,368,42,1012.79,72.5,0
"2021-09-26 21:12:18+00",21.4,23.4,,71.2,-829,495,37,1012.84,72.3,0
"2021-09-26 21:17:18+00",19.9,26.9,,71.2,-855,364,51,1012.99,72.2,0
"2021-09-26 21:22:18+00",21.4,25.4,,71.2,-902,468,39,1013.01,72.2,0
"2021-09-26 21:27:18+00",19.4,22.4,,71.2,-747,459,41,1013.12,71.9,0
"2021-09-26 21:32:18+00",15.4,17.4,,71.2,-631,317,38,1013.18,71.9,0
"2021-09-26 21:37:18+00",16.1,19.1,,71.1,-725,132,52,1013.21,72.1,0
"2021-09-26 21:42:18+00",16.6,18.6,,71,-751,152,35,1013.25,72.2,0
"2021-09-26 21:47:18+00",17.8,21.8,,70.9,-766,264,46,1013.28,72,0
"2021-09-26 21:52:18+00",21.7,24.7,,70.8,-963,277,51,1013.3,71.8,0
"2021-09-26 21:57:18+00",21.6,24.6,,70.8,-916,345,35,1013.38,71.5,0
"2021-09-26 22:02:18+00",17.9,20.9,,70.6,-736,336,44,1013.38,71.1,0
"2021-09-26 22:07:18+00",17.3,20.3,,70.5,-688,342,43,1013.54,70.6,0
"2021-09-26 22:12:18+00",17.2,20.2,,70.5,-744,256,31,1013.64,70.3,0
"2021-09-26 22:17:18+00",16.3,18.3,,70.4,-708,225,31,1013.71,70.1,0
"2021-09-26 22:22:18+00",15.3,16.3,,70.2,-690,125,26,1013.84,69.9,0
"2021-09-26 22:27:18+00",14.4,16.4,,70.2,-629,143,42,1013.82,69.8,0
"2021-09-26 22:32:18+00",12.2,15.2,,70,-521,146,36,1013.95,69.5,0
"2021-09-26 22:37:18+00",12.9,14.9,,69.9,-575,147,31,1013.97,69.3,0
"2021-09-26 22:42:18+00",12.9,14.9,,69.8,-574,141,40,1014.05,69.1,0
"2021-09-26 22:47:18+00",12.4,15.4,,69.5,-552,114,24,1014.16,68.8,0
"2021-09-26 22:52:18+00",11.4,13.4,,69.3,-509,105,33,1014.24,68.6,0
"2021-09-26 22:57:18+00",9.5,10.5,,68.8,-417,-7,29,1014.35,68.2,0
"2021-09-26 23:02:18+00",9.9,10.9,,68.6,-449,9,16,1014.39,67.7,0
"2021-09-26 23:07:18+00",10.1,11.1,,68.5,-453,-11,17,1014.48,67.4,0
"2021-09-26 23:12:18+00",9.4,10.4,,68.4,-417,-31,9,1014.5,67,0
"2021-09-26 23:17:18+00",8.9,9.9,,68.2,-395,-25,9,1014.52,66.7,0
"2021-09-26 23:22:18+00",9.1,10.1,,68,-396,-51,15,1014.54,66.3,0
"2021-09-26 23:27:18+00",9.5,10.5,,67.9,-411,-54,12,1014.55,66.1,0
"2021-09-26 23:32:18+00",9.2,10.2,,67.7,-402,-39,12,1014.6,65.9,0
"2021-09-26 23:37:18+00",10.0,11.0,,67.7,-441,-34,5,1014.62,65.7,0
"2021-09-26 23:42:18+00",10.3,10.3,,67.8,-466,-20,14,1014.72,65.6,0
"2021-09-26 23:47:18+00",10.6,12.6,,67.8,-473,-29,9,1014.73,65.6,0
"2021-09-26 23:52:18+00",10.3,11.3,,67.7,-464,2,13,1014.8,65.5,0
"2021-09-26 23:57:18+00",9.8,10.8,,67.7,-436,3,9,1014.81,65.5,0
